{"data":{"norad_id":51792,"intl_designator":"2022-017AA","name":"STARLINK-3626","alt_names":[],"object_type":"PAYLOAD","status":"ACTIVE","operator":null,"country":"US","launch_date":"2022-02-25","launch_site_code":"AFWTR","launch_vehicle":null,"mission":null,"orbit_class":"UNKNOWN","rcs_meters":null,"size_class":null,"mass_kg":null,"dimensions":null,"purposes":["comms"],"wikipedia_slug":null,"has_3d_model":false,"image_url":null,"decayed_at":null,"tle_current":{"epoch":"2026-05-25T00:13:35.942592Z","epoch_age_seconds":77536,"freshness":"FRESH","line1":"1 51792U 22017AA  26145.00944378  .00000791  00000+0  67779-4 0  9995","line2":"2 51792  53.2154   6.5076 0001332  89.2703 270.8442 15.08843656235494","mean_motion":15.08843656,"eccentricity":0.0001332,"inclination_deg":53.2154,"raan_deg":6.5076,"arg_perigee_deg":89.2703,"mean_anomaly_deg":270.8442,"bstar":6.7779e-5,"rev_number":23549,"period_min":95.437323428028,"perigee_km":538.81075387796,"apogee_km":540.65367423659,"semimajor_km":6917.8692140573,"source":"CELESTRAK","updated_at":"2026-05-25T13:38:16.954890Z"}}}